TimeMST,TemperatureF,Dew PointF,Humidity,Sea Level PressureIn,VisibilityMPH,Wind Direction,Wind SpeedMPH,Gust SpeedMPH,PrecipitationIn,Events,Conditions,WindDirDegrees,DateUTC
12:53 AM,-11.2,-16.6,77,30.05,10.0,NNW,4.6,-,N/A,,Clear,340,2013-01-15 07:53:00
1:53 AM,-0.0,-8.0,69,30.42,10.0,North,8.1,-,N/A,,Clear,360,2013-01-15 08:53:00
2:53 AM,-0.0,-8.0,69,30.43,10.0,North,4.6,-,N/A,,Scattered Clouds,350,2013-01-15 09:53:00
3:53 AM,-0.9,-8.0,72,30.44,10.0,South,4.6,-,N/A,,Overcast,180,2013-01-15 10:53:00
4:53 AM,1.4,-5.8,72,30.07,10.0,NNE,9.2,-,N/A,,Mostly Cloudy,30,2013-01-15 11:53:00
5:53 AM,1.9,-6.0,69,30.46,10.0,NNE,16.1,-,N/A,,Mostly Cloudy,20,2013-01-15 12:53:00
6:53 AM,1.9,-5.1,72,30.48,10.0,NNE,11.5,16.1,N/A,,Clear,20,2013-01-15 13:53:00
7:53 AM,-0.9,-8.0,72,30.54,10.0,NW,11.5,-,N/A,,Clear,320,2013-01-15 14:53:00
8:53 AM,1.0,-7.1,69,30.55,10.0,NNW,3.5,-,N/A,,Clear,340,2013-01-15 15:53:00
9:53 AM,-0.9,-8.0,72,30.57,10.0,SW,5.8,-,N/A,,Clear,220,2013-01-15 16:53:00
10:53 AM,1.9,-6.0,69,30.52,10.0,Calm,Calm,-,N/A,,Clear,0,2013-01-15 17:53:00
11:53 AM,7.0,-2.0,67,30.52,10.0,Calm,Calm,-,N/A,,Clear,0,2013-01-15 18:53:00
12:53 PM,10.9,1.0,64,30.49,10.0,South,5.8,-,N/A,,Clear,170,2013-01-15 19:53:00
1:53 PM,14.0,5.0,67,30.40,10.0,WSW,8.1,-,N/A,,Clear,240,2013-01-15 20:53:00
2:53 PM,18.0,7.0,62,30.41,10.0,Variable,3.5,-,N/A,,Clear,0,2013-01-15 21:53:00
3:53 PM,16.0,8.1,71,30.40,10.0,North,16.1,-,N/A,,Clear,10,2013-01-15 22:53:00
4:53 PM,12.0,5.0,73,30.44,10.0,Variable,6.9,-,N/A,,Clear,0,2013-01-15 23:53:00
5:53 PM,9.0,3.0,77,30.46,10.0,WNW,9.2,-,N/A,,Clear,290,2013-01-16 00:53:00
6:53 PM,9.0,1.9,73,30.49,10.0,South,4.6,-,N/A,,Clear,180,2013-01-16 01:53:00
7:53 PM,6.1,-0.0,76,30.54,10.0,West,3.5,-,N/A,,Clear,270,2013-01-16 02:53:00
8:53 PM,6.1,-0.0,76,30.55,10.0,West,3.5,-,N/A,,Clear,260,2013-01-16 03:53:00
9:53 PM,7.0,1.0,77,30.57,10.0,Calm,Calm,-,N/A,,Clear,0,2013-01-16 04:53:00
10:53 PM,3.0,-0.9,84,30.58,10.0,Calm,Calm,-,N/A,,Clear,0,2013-01-16 05:53:00
11:53 PM,-0.9,-5.1,83,30.59,10.0,Variable,4.6,-,N/A,,Clear,0,2013-01-16 06:53:00